This demonstration page uses our WeatherBlox Daily Observations layout. Learn more.

Left ArrowRight Arrow

47.50024, -111.30081

Hourly Observations for July 29, 2020

Temp ( °F °C ) Dew Point ( °F °C ) Humidity (%) Winds ( mph kmh ) Pressure ( in mb ) Visibility ( mi km ) Precip ( " mm )
12:53 am 00:53 Clear 67 19.4 44 6.7 44 44 SW 10 17 29.80 1009 10 16 0.00 0.00
1:53 am 01:53 Clear 65 18.3 42 5.6 43 43 SSW 12 19 29.80 1009 10 16 0.00 0.00
2:53 am 02:53 Clear 63 17.2 43 6.1 48 48 SSW 9 15 29.81 1010 10 16 0.00 0.00
3:53 am 03:53 Clear 63 17.2 44 6.7 50 50 SSW 8 13 29.83 1010 10 16 0.00 0.00
4:53 am 04:53 Clear 63 17.2 45 7.2 52 52 SSW 10 17 29.83 1010 10 16 0.00 0.00
5:53 am 05:53 Clear 62 16.7 45 7.2 54 54 SSW 10 17 29.85 1011 10 16 0.00 0.00
6:53 am 06:53 Sunny 65 18.3 46 7.8 51 51 SW 10 17 29.86 1011 10 16 0.00 0.00
7:53 am 07:53 Sunny 70 21.1 47 8.3 44 44 SSW 9 15 29.88 1012 10 16 0.00 0.00
8:53 am 08:53 Sunny 74 23.3 48 8.9 40 40 SSW 12 19 29.91 1013 10 16 0.00 0.00
9:53 am 09:53 Sunny 79 26.1 50 10 36 36 SW 13 20 29.90 1013 10 16 0.00 0.00
10:14 am 10:14 Sunny 81 27.2 49 9.4 33 33 SW 12 19 29.75 1007 10 16 0.00 0.00
10:53 am 10:53 Sunny 84 28.9 48 8.9 29 29 WSW 10 17 29.90 1013 10 16 0.00 0.00
11:53 am 11:53 Sunny 86 30 44 6.7 23 23 Calm 29.91 1013 10 16 0.00 0.00
12:53 pm 12:53 Sunny 90 32.2 40 4.4 17 17 VRB 5 7 29.90 1012 10 16 0.00 0.00
1:53 pm 13:53 Sunny 91 32.8 41 5 17 17 undefined N/A 29.90 1012 10 16 0.00 0.00
2:53 pm 14:53 Sunny 91 32.8 39 3.9 16 16 VRB 3 6 29.89 1012 10 16 0.00 0.00
3:53 pm 15:53 Partly Cloudy 94 34.4 39 3.9 15 15 NW 10 17 29.88 1012 10 16 0.00 0.00
4:53 pm 16:53 Mostly Cloudy 94 34.4 38 3.3 14 14 VRB 3 6 29.88 1012 10 16 0.00 0.00
5:53 pm 17:53 Sunny 93 33.9 39 3.9 15 15 VRB 5 7 29.89 1012 10 16 0.00 0.00
6:53 pm 18:53 Sunny 91 32.8 43 6.1 19 19 N 3 6 29.90 1012 10 16 0.00 0.00
7:53 pm 19:53 Mostly Cloudy 84 28.9 46 7.8 27 27 WSW 12 19 29.92 1013 10 16 0.00 0.00
8:53 pm 20:53 Sunny 75 23.9 46 7.8 36 36 SW 10 17 29.95 1014 10 16 0.00 0.00
9:53 pm 21:53 Clear 71 21.7 44 6.7 38 38 SW 10 17 29.97 1015 10 16 0.00 0.00
10:53 pm 22:53 Mostly Clear 68 20 44 6.7 42 42 SSW 8 13 29.98 1015 10 16 0.00 0.00
11:53 pm 23:53 Partly Cloudy 70 21.1 44 6.7 39 39 SSW 10 17 29.98 1015 10 16 0.00 0.00

Powered by AerisWeather